When you browse on this site, cookies collect data to enhance your experience and personalize the content and advertising you see.
Visit our Privacy Policy to learn more. By continuing to use the site, you agree to this use of cookies and data.
  • In Sweden
  • List of Countries
  • For 7 days
  • Water Temperature
  • Satellite Maps
  • Weather Map
  • Weather Widgets
  • user-avatar
    Login

    Hourly Weather Bidayykskoe

    Today, 19 June, Wednesday

    Time Temperature Precipitation Wind Pressure Humidity
    00:00 +12°C° 0 mm 2 mps 744 mmHg 81%
    01:00 +10°C° 0 mm 2 mps 744 mmHg 83%
    02:00 +11°C° 0 mm 1 mps 744 mmHg 85%
    03:00 +11°C° 0 mm 1 mps 744 mmHg 86%
    04:00 +10°C° 0 mm 2 mps 744 mmHg 86%
    05:00 +10°C° 0 mm 2 mps 745 mmHg 87%
    06:00 +12°C° 0 mm 2 mps 745 mmHg 81%
    07:00 +14°C° 0 mm 2 mps 745 mmHg 75%
    08:00 +15°C° 0 mm 2 mps 746 mmHg 69%
    09:00 +16°C° 0.1 mm 3 mps 746 mmHg 66%
    10:00 +17°C° 0.1 mm 3 mps 746 mmHg 63%
    11:00 +18°C° 0.1 mm 4 mps 746 mmHg 60%
    12:00 +18°C° 0.3 mm 4 mps 746 mmHg 60%
    13:00 +18°C° 0.3 mm 4 mps 746 mmHg 59%
    14:00 +19°C° 0.3 mm 5 mps 746 mmHg 59%
    15:00 +19°C° 0 mm 5 mps 747 mmHg 58%
    16:00 +19°C° 0 mm 5 mps 747 mmHg 56%
    17:00 +19°C° 0 mm 5 mps 747 mmHg 55%
    18:00 +18°C° 0 mm 3 mps 748 mmHg 60%
    19:00 +17°C° 0 mm 2 mps 748 mmHg 64%
    20:00 +16°C° 0 mm 1 mps 748 mmHg 69%
    21:00 +15°C° 0 mm 1 mps 748 mmHg 70%
    22:00 +14°C° 0 mm 2 mps 748 mmHg 71%
    23:00 +14°C° 0 mm 2 mps 749 mmHg 72%

    Tomorrow, 20 June, Thursday

    Time Temperature Precipitation Wind Pressure Humidity
    00:00 +13°C° 0 mm 2 mps 749 mmHg 73%
    01:00 +13°C° 0 mm 2 mps 749 mmHg 74%
    02:00 +12°C° 0 mm 3 mps 749 mmHg 75%
    03:00 +12°C° 0 mm 3 mps 749 mmHg 78%
    04:00 +12°C° 0 mm 3 mps 750 mmHg 81%
    05:00 +12°C° 0 mm 3 mps 750 mmHg 84%
    06:00 +14°C° 0 mm 3 mps 750 mmHg 78%
    07:00 +16°C° 0 mm 3 mps 750 mmHg 73%
    08:00 +18°C° 0 mm 3 mps 750 mmHg 68%
    09:00 +19°C° 0 mm 3 mps 750 mmHg 64%
    10:00 +20°C° 0 mm 4 mps 750 mmHg 59%
    11:00 +22°C° 0 mm 4 mps 750 mmHg 54%
    12:00 +22°C° 0 mm 4 mps 750 mmHg 52%
    13:00 +22°C° 0 mm 4 mps 750 mmHg 50%
    14:00 +23°C° 0 mm 4 mps 750 mmHg 48%
    15:00 +23°C° 0 mm 4 mps 750 mmHg 49%
    16:00 +23°C° 0 mm 4 mps 750 mmHg 50%
    17:00 +23°C° 0 mm 4 mps 750 mmHg 51%
    18:00 +22°C° 0 mm 4 mps 750 mmHg 55%
    19:00 +21°C° 0 mm 3 mps 750 mmHg 60%
    20:00 +19°C° 0 mm 3 mps 750 mmHg 65%
    21:00 +19°C° 0 mm 3 mps 750 mmHg 65%
    22:00 +18°C° 0 mm 3 mps 750 mmHg 65%
    23:00 +17°C° 0 mm 3 mps 750 mmHg 65%

    Day after tomorrow, 21 June, Friday

    Time Temperature Precipitation Wind Pressure Humidity
    00:00 +17°C° 0 mm 3 mps 750 mmHg 66%
    01:00 +17°C° 0 mm 3 mps 749 mmHg 66%
    02:00 +16°C° 0 mm 3 mps 749 mmHg 67%
    03:00 +16°C° 0 mm 3 mps 749 mmHg 68%
    04:00 +16°C° 0 mm 3 mps 749 mmHg 70%
    05:00 +16°C° 0 mm 3 mps 749 mmHg 71%
    06:00 +18°C° 0 mm 3 mps 749 mmHg 66%
    07:00 +19°C° 0 mm 3 mps 749 mmHg 61%
    08:00 +21°C° 0 mm 3 mps 749 mmHg 56%
    09:00 +22°C° 0 mm 4 mps 749 mmHg 52%
    10:00 +23°C° 0 mm 4 mps 749 mmHg 48%
    11:00 +25°C° 0 mm 5 mps 748 mmHg 44%
    12:00 +26°C° 0 mm 5 mps 748 mmHg 43%
    13:00 +26°C° 0 mm 5 mps 748 mmHg 43%
    14:00 +27°C° 0 mm 5 mps 747 mmHg 42%
    15:00 +27°C° 0 mm 5 mps 747 mmHg 43%
    16:00 +27°C° 0 mm 5 mps 746 mmHg 43%
    17:00 +27°C° 0 mm 5 mps 746 mmHg 44%
    18:00 +25°C° 0 mm 4 mps 746 mmHg 49%
    19:00 +23°C° 0 mm 4 mps 746 mmHg 55%
    20:00 +22°C° 0 mm 3 mps 745 mmHg 61%
    21:00 +21°C° 0.8 mm 3 mps 745 mmHg 66%
    22:00 +20°C° 0.8 mm 3 mps 745 mmHg 71%
    23:00 +19°C° 0.8 mm 4 mps 745 mmHg 77%

    22 June, Saturday

    Time Temperature Precipitation Wind Pressure Humidity
    00:00 +18°C° 0.3 mm 3 mps 745 mmHg 81%
    01:00 +17°C° 0.3 mm 3 mps 745 mmHg 86%
    02:00 +16°C° 0.3 mm 3 mps 745 mmHg 90%
    03:00 +15°C° 0 mm 4 mps 745 mmHg 90%
    04:00 +15°C° 0 mm 4 mps 745 mmHg 90%
    05:00 +14°C° 0 mm 4 mps 746 mmHg 90%
    06:00 +15°C° 0 mm 4 mps 746 mmHg 82%
    07:00 +16°C° 0 mm 5 mps 746 mmHg 76%
    08:00 +17°C° 0 mm 6 mps 747 mmHg 70%
    09:00 +19°C° 0 mm 6 mps 747 mmHg 68%
    10:00 +18°C° 0 mm 7 mps 747 mmHg 65%
    11:00 +20°C° 0 mm 7 mps 747 mmHg 63%
    12:00 +18°C° 0.1 mm 8 mps 748 mmHg 63%
    13:00 +17°C° 0.1 mm 8 mps 748 mmHg 63%
    14:00 +17°C° 0.1 mm 9 mps 748 mmHg 64%
    15:00 +17°C° 0 mm 9 mps 749 mmHg 61%
    16:00 +16°C° 0 mm 9 mps 749 mmHg 57%
    17:00 +16°C° 0 mm 9 mps 749 mmHg 54%
    18:00 +15°C° 0 mm 7 mps 750 mmHg 59%
    19:00 +14°C° 0 mm 6 mps 750 mmHg 63%
    20:00 +13°C° 0 mm 4 mps 750 mmHg 67%
    21:00 +12°C° 0 mm 4 mps 750 mmHg 70%
    22:00 +12°C° 0 mm 4 mps 751 mmHg 74%
    23:00 +11°C° 0 mm 3 mps 751 mmHg 77%

    23 June, Sunday

    Time Temperature Precipitation Wind Pressure Humidity
    00:00 +10°C° 0 mm 3 mps 751 mmHg 79%
    01:00 +10°C° 0 mm 3 mps 751 mmHg 81%
    02:00 +10°C° 0 mm 3 mps 751 mmHg 83%
    03:00 +9°C° 0 mm 3 mps 751 mmHg 82%
    04:00 +9°C° 0 mm 3 mps 751 mmHg 82%
    05:00 +9°C° 0 mm 3 mps 752 mmHg 82%
    06:00 +11°C° 0 mm 3 mps 752 mmHg 73%
    07:00 +13°C° 0 mm 2 mps 752 mmHg 64%
    08:00 +15°C° 0 mm 2 mps 752 mmHg 55%
    09:00 +14°C° 0 mm 3 mps 752 mmHg 53%
    10:00 +16°C° 0 mm 3 mps 752 mmHg 52%
    11:00 +17°C° 0 mm 4 mps 752 mmHg 50%
    12:00 +17°C° 0 mm 4 mps 752 mmHg 56%
    13:00 +15°C° 0 mm 5 mps 751 mmHg 61%
    14:00 +15°C° 0 mm 6 mps 751 mmHg 67%
    15:00 +15°C° 0 mm 5 mps 751 mmHg 68%
    16:00 +14°C° 0 mm 4 mps 751 mmHg 69%
    17:00 +14°C° 0 mm 3 mps 750 mmHg 70%
    18:00 +14°C° 0 mm 3 mps 750 mmHg 74%
    19:00 +14°C° 0 mm 2 mps 750 mmHg 77%
    20:00 +14°C° 0 mm 2 mps 750 mmHg 80%
    21:00 +13°C° 0 mm 2 mps 750 mmHg 83%
    22:00 +12°C° 0 mm 2 mps 750 mmHg 86%
    23:00 +10°C° 0 mm 2 mps 750 mmHg 89%

    24 June, Monday

    Time Temperature Precipitation Wind Pressure Humidity
    00:00 +10°C° 0 mm 2 mps 750 mmHg 89%
    01:00 +10°C° 0 mm 2 mps 749 mmHg 90%
    02:00 +10°C° 0 mm 2 mps 749 mmHg 91%
    03:00 +10°C° 0 mm 3 mps 749 mmHg 90%
    04:00 +10°C° 0 mm 3 mps 749 mmHg 89%
    05:00 +11°C° 0 mm 3 mps 749 mmHg 88%
    06:00 +12°C° 0 mm 4 mps 749 mmHg 84%
    07:00 +13°C° 0 mm 4 mps 749 mmHg 79%
    08:00 +15°C° 0 mm 4 mps 749 mmHg 75%
    09:00 +17°C° 0 mm 4 mps 749 mmHg 71%
    10:00 +19°C° 0 mm 3 mps 749 mmHg 66%
    11:00 +20°C° 0 mm 3 mps 749 mmHg 62%
    12:00 +21°C° 0 mm 3 mps 748 mmHg 59%
    13:00 +23°C° 0 mm 2 mps 748 mmHg 57%
    14:00 +24°C° 0 mm 2 mps 748 mmHg 55%
    15:00 +25°C° 0 mm 2 mps 748 mmHg 55%
    16:00 +25°C° 0 mm 2 mps 748 mmHg 55%
    17:00 +26°C° 0 mm 1 mps 747 mmHg 55%
    18:00 +25°C° 0 mm 1 mps 747 mmHg 61%
    19:00 +24°C° 0 mm 2 mps 747 mmHg 67%
    20:00 +23°C° 0 mm 2 mps 747 mmHg 74%
    21:00 +21°C° 0 mm 2 mps 747 mmHg 78%
    22:00 +20°C° 0 mm 2 mps 747 mmHg 83%
    23:00 +19°C° 0 mm 2 mps 747 mmHg 88%
    Show more